STARLINK-36657, 67835

Orbit data source: Space-Track

STARLINK-36657, 67835 is a payload satellite owned by SpaceX/Seattle (US) in LEO that was launched on Mon, 16 Feb 2026 UTC via an FALCON 9 launch vehicle from the Air Force Eastern Test Range (AFETR). Payload-class satellites include a variety of spacecraft equipped with specific instruments for various scientific and technological missions. These include communications satellites like Starlink; space stations such as the ISS; scientific satellites like the Hubble; Earth observation satellites from companies like Planet Labs, Umbra, and HawkEye 360; GPS; miniature CubeSats for education and research; and military/defense satellites.

Loading next visibility...
Identifier
67835, 2026-033Q
Orbit
LEO
Country
Flag of USUS
Related business
Manufacturer
SpaceX/Seattle
Mission
Operational Commercial Communications
Bus & Motor
STARLINK V2MO, Unknown motor
Mass
575 kg wet, ~530 kg dry
Launch date (UTC)
2026-02-16 (4 months ago)
Launch vehicle
FALCON 9
Launch site
Air Force Eastern Test Range (AFETR)
Object type
Payload
Rocket body
Debris
Shape & HBR
Box + 2 Pan, 17.7 m
Radar Cross Section
36.964 m², Large (>1 m²)

Expand to show TLE details & history
Last TLE update: 19 hours ago

TLE from 19 hours ago
0 STARLINK-36657
1 67835U 26033Q   26171.06245310  .00014639  00000-0  54034-3 0  9993
2 67835  43.0020  48.6349 0001337 279.7577  80.3123 15.27584961 20335
Epoch: 2026-06-20T01:29Z
TLE epoch observation values (Epoch: 2026-06-20T01:29:55.947Z)
Latitude
-0.00008°
Longitude
117.86924°
Altitude
482.656 km
Speed
7.626 km/s
True Right ascension
03h 14m 32s
True Declination
0° 00' 00"
Sunlit
Object was in daylight at epoch
Visualization orbit readout
Latitude
Unknown
Longitude
Unknown
Altitude
Unknown
Speed
Unknown
Apparent Right ascension
Unknown
Apparent Declination
Unknown
Sunlit
N/A
Visualization observer readout
Local Sidereal Time
07:22:41
Azimuth
Unknown
Elevation
Unknown
Doppler factor
Unknown
Orbital elements
Apogee altitude
485.897 km
Perigee altitude
484.061 km
Semi-major axis
6,863.116 km
Eccentricity
0.00013
Inclination
43.002°
RAAN
48.6349°
Arg. of periapsis
279.7577°
True anomaly
80.3274°
Mean anomaly
80.3123°
Eccentric anomaly
80.31985°
Mean motion
3.81734 °/min
Orbital period
94.31 mins
BSTAR
0.00054034
Loading maneuver chart data...
Computing Atmospheric mass density...
Loading historical data...
Loading historical data...
Loading historical data...
Loading historical data...
Loading historical data...
Loading historical data...
Loading historical data...

Documentation

Showing up to 5 results
|